Location: ???????????
(55.5758°N, 38.4970°E)
Time: 17:30:28
(UTC+00:00)

Meteor 2-5 Rocket - Pass Details

Date: 15 November 2025
Orbit: 832 x 911 km, 81.2° (Epoch: 14 December)

Event Time Altitude Azimuth Distance (km) Brightness Sun altitude
Exits shadow 01:36:57 39° 175° (S) 1,306 4.6 -28.3°
Maximum altitude 01:39:10 74° 101° (E) 927 3.9 -28.0°
Drops below altitude 10° 01:44:56 10° 17° (NNE) 2,537 6.4 -27.2°
Sets 01:47:22 0° 16° (NNE) 3,467 7.2 -26.9°
